TimeEDT,TemperatureF,Dew PointF,Humidity,Sea Level PressureIn,VisibilityMPH,Wind Direction,Wind SpeedMPH,Gust SpeedMPH,PrecipitationIn,Events,Conditions,WindDirDegrees,DateUTC
12:51 AM,50.0,44.1,80,29.98,5.0,NNW,5.8,-,0.03,Rain,Rain,340,2013-04-10 04:51:00
1:40 AM,46.4,44.6,93,30.01,2.5,NW,4.6,-,0.17,Rain,Rain,320,2013-04-10 05:40:00
1:51 AM,46.9,46.0,97,29.99,2.5,Calm,Calm,-,0.24,Rain,Rain,0,2013-04-10 05:51:00
2:10 AM,46.4,46.4,100,29.94,3.0,ESE,4.6,-,0.10,Rain,Rain,120,2013-04-10 06:10:00
2:32 AM,46.4,46.4,100,29.94,5.0,North,4.6,-,0.13,Rain,Light Rain,350,2013-04-10 06:32:00
2:51 AM,46.9,46.0,97,29.95,8.0,Calm,Calm,-,0.13,,Overcast,0,2013-04-10 06:51:00
3:51 AM,46.9,46.0,97,29.93,8.0,North,4.6,-,0.00,,Overcast,350,2013-04-10 07:51:00
4:51 AM,46.9,45.0,93,29.92,5.0,North,6.9,-,0.00,,Overcast,10,2013-04-10 08:51:00
5:51 AM,46.9,45.0,93,29.94,7.0,Calm,Calm,-,0.00,,Overcast,0,2013-04-10 09:51:00
6:04 AM,46.4,44.6,93,29.94,7.0,Calm,Calm,-,N/A,,Overcast,0,2013-04-10 10:04:00
6:51 AM,46.0,45.0,96,29.96,5.0,SW,3.5,-,N/A,,Overcast,230,2013-04-10 10:51:00
7:30 AM,46.4,44.6,93,29.96,3.0,NNW,5.8,-,N/A,Fog,Patches of Fog,340,2013-04-10 11:30:00
7:51 AM,46.9,46.0,97,29.97,3.0,Variable,3.5,-,N/A,,Overcast,0,2013-04-10 11:51:00
8:39 AM,48.2,46.4,93,29.98,3.0,NNE,4.6,-,N/A,,Overcast,20,2013-04-10 12:39:00
8:51 AM,48.9,46.0,90,29.98,3.0,NNE,5.8,-,N/A,,Overcast,20,2013-04-10 12:51:00
9:06 AM,48.2,46.4,93,29.98,3.0,NE,4.6,-,0.00,,Light Drizzle,40,2013-04-10 13:06:00
9:51 AM,50.0,46.0,86,29.99,8.0,Calm,Calm,-,0.00,,Overcast,0,2013-04-10 13:51:00
10:51 AM,51.1,46.9,86,29.99,10.0,Variable,3.5,-,N/A,,Overcast,0,2013-04-10 14:51:00
11:29 AM,51.8,46.4,82,30.00,10.0,NNW,4.6,-,N/A,,Overcast,340,2013-04-10 15:29:00
11:51 AM,52.0,46.0,80,29.99,10.0,Variable,3.5,-,N/A,,Overcast,0,2013-04-10 15:51:00
12:13 PM,51.8,46.4,82,29.98,10.0,Calm,Calm,-,N/A,,Overcast,0,2013-04-10 16:13:00
12:36 PM,53.6,46.4,77,29.99,10.0,Variable,4.6,-,N/A,,Overcast,0,2013-04-10 16:36:00
12:51 PM,55.0,46.9,74,29.99,10.0,Calm,Calm,-,N/A,,Overcast,0,2013-04-10 16:51:00
1:51 PM,53.1,48.0,83,29.99,8.0,NNE,4.6,-,0.02,Rain,Light Rain,20,2013-04-10 17:51:00
2:51 PM,54.0,48.9,83,29.93,10.0,ESE,3.5,-,0.00,,Mostly Cloudy,120,2013-04-10 18:51:00
3:51 PM,57.0,46.9,69,29.92,10.0,Calm,Calm,-,N/A,,Mostly Cloudy,0,2013-04-10 19:51:00
4:06 PM,57.2,46.4,67,29.91,10.0,Calm,Calm,-,N/A,,Overcast,0,2013-04-10 20:06:00
4:51 PM,55.9,46.9,72,29.87,10.0,East,3.5,-,N/A,,Overcast,80,2013-04-10 20:51:00
5:51 PM,53.1,48.0,83,29.88,5.0,North,5.8,-,0.03,Rain,Light Rain,10,2013-04-10 21:51:00
6:06 PM,51.8,48.2,88,29.90,4.0,NNW,13.8,-,0.04,Rain-Thunderstorm,Thunderstorms and Rain,340,2013-04-10 22:06:00
6:35 PM,51.8,48.2,88,29.88,1.0,North,8.1,-,0.17,Rain-Thunderstorm,Heavy Thunderstorms and Rain,10,2013-04-10 22:35:00
6:51 PM,51.1,50.0,96,29.91,3.0,NNE,4.6,-,0.25,Rain-Thunderstorm,Light Thunderstorms and Rain,30,2013-04-10 22:51:00
7:05 PM,51.8,48.2,88,29.87,3.0,NNE,4.6,-,0.00,Rain,Light Rain,30,2013-04-10 23:05:00
7:51 PM,50.0,48.9,96,29.87,6.0,NNW,5.8,-,0.03,Rain,Light Rain,340,2013-04-10 23:51:00
7:59 PM,50.0,48.2,94,29.87,6.0,NNW,5.8,-,0.00,Rain,Light Rain,340,2013-04-10 23:59:00
8:51 PM,48.9,46.9,93,29.86,10.0,North,8.1,-,0.01,,Overcast,10,2013-04-11 00:51:00
9:09 PM,48.2,46.4,93,29.86,9.0,NNE,9.2,-,0.00,Rain,Light Rain,30,2013-04-11 01:09:00
9:31 PM,48.2,44.6,87,29.87,9.0,NNE,9.2,-,0.00,,Overcast,30,2013-04-11 01:31:00
9:51 PM,46.9,44.1,90,29.89,10.0,NNE,8.1,-,0.00,,Overcast,20,2013-04-11 01:51:00
10:16 PM,46.4,42.8,87,29.87,5.0,North,6.9,-,0.02,Rain,Light Rain,10,2013-04-11 02:16:00
10:31 PM,46.4,42.8,87,29.90,7.0,North,6.9,-,0.02,Rain,Light Rain,350,2013-04-11 02:31:00
10:51 PM,46.4,44.6,93,29.91,8.0,North,9.2,-,N/A,,Overcast,350,2013-04-11 02:51:00
11:13 PM,46.4,44.6,93,29.90,2.0,North,9.2,-,0.00,,Light Drizzle,360,2013-04-11 03:13:00
11:51 PM,45.0,43.0,93,29.91,2.5,North,9.2,-,0.01,,Light Drizzle,10,2013-04-11 03:51:00